Time,TemperatureF,DewpointF,PressureIn,WindDirection,WindDirectionDegrees,WindSpeedMPH,WindSpeedGustMPH,Humidity,HourlyPrecipIn,Conditions,Clouds,dailyrainin,SoftwareType,DateUTC
2013-02-06 00:00:00,19.2,7.9,29.89,ENE,74,0.0,1.0,61,0.00,,,0.00,Wunderground v.1.15,2013-02-06 05:00:00,
2013-02-06 00:01:00,19.2,7.9,29.89,ENE,74,0.0,1.0,61,0.00,,,0.00,Wunderground v.1.15,2013-02-06 05:01:00,
2013-02-06 00:06:00,19.2,7.9,29.89,ENE,74,0.0,1.0,61,0.00,,,0.00,Wunderground v.1.15,2013-02-06 05:06:00,
2013-02-06 00:09:00,19.4,7.4,29.89,ENE,74,3.0,3.0,59,0.00,,,0.00,Wunderground v.1.15,2013-02-06 05:09:00,
2013-02-06 00:14:00,19.4,7.4,29.89,ENE,74,1.0,3.0,59,0.00,,,0.00,Wunderground v.1.15,2013-02-06 05:14:00,
2013-02-06 00:20:00,19.5,7.1,29.89,ENE,74,1.0,2.0,58,0.00,,,0.00,Wunderground v.1.15,2013-02-06 05:20:00,
2013-02-06 00:26:00,19.5,6.7,29.88,ENE,74,2.0,4.0,57,0.00,,,0.00,Wunderground v.1.15,2013-02-06 05:26:00,
2013-02-06 00:31:00,19.5,7.1,29.88,ENE,74,0.0,2.0,58,0.00,,,0.00,Wunderground v.1.15,2013-02-06 05:31:00,
2013-02-06 00:36:00,19.5,7.5,29.88,ENE,75,1.0,3.0,59,0.00,,,0.00,Wunderground v.1.15,2013-02-06 05:36:00,
2013-02-06 00:42:00,19.7,8.0,29.88,ENE,75,2.0,2.0,60,0.00,,,0.00,Wunderground v.1.15,2013-02-06 05:42:00,
2013-02-06 00:47:00,19.7,8.0,29.88,ENE,75,0.0,3.0,60,0.00,,,0.00,Wunderground v.1.15,2013-02-06 05:47:00,
2013-02-06 00:52:00,19.7,7.7,29.88,ENE,75,1.0,3.0,59,0.00,,,0.00,Wunderground v.1.15,2013-02-06 05:52:00,
2013-02-06 00:58:00,19.7,7.3,29.88,ENE,76,3.0,5.0,58,0.00,,,0.00,Wunderground v.1.15,2013-02-06 05:58:00,
2013-02-06 01:03:00,19.7,6.9,29.88,ENE,76,2.0,2.0,57,0.00,,,0.00,Wunderground v.1.15,2013-02-06 06:03:00,
2013-02-06 01:09:00,19.7,6.9,29.88,ESE,104,5.0,5.0,57,0.00,,,0.00,Wunderground v.1.15,2013-02-06 06:09:00,
2013-02-06 01:14:00,19.7,7.3,29.87,ESE,109,2.0,4.0,58,0.00,,,0.00,Wunderground v.1.15,2013-02-06 06:14:00,
2013-02-06 01:19:00,19.7,7.3,29.87,ESE,109,1.0,4.0,58,0.00,,,0.00,Wunderground v.1.15,2013-02-06 06:19:00,
2013-02-06 01:24:00,19.5,7.1,29.87,ESE,109,0.0,3.0,58,0.00,,,0.00,Wunderground v.1.15,2013-02-06 06:24:00,
2013-02-06 01:30:00,19.4,7.8,29.88,ESE,109,2.0,2.0,60,0.00,,,0.00,Wunderground v.1.15,2013-02-06 06:30:00,
2013-02-06 01:35:00,19.4,8.1,29.88,ESE,109,1.0,3.0,61,0.00,,,0.00,Wunderground v.1.15,2013-02-06 06:35:00,
2013-02-06 01:41:00,19.4,8.5,29.88,ESE,109,0.0,1.0,62,0.00,,,0.00,Wunderground v.1.15,2013-02-06 06:41:00,
2013-02-06 01:46:00,19.4,8.5,29.88,ESE,109,1.0,2.0,62,0.00,,,0.00,Wunderground v.1.15,2013-02-06 06:46:00,
2013-02-06 01:52:00,19.4,8.8,29.88,ESE,109,0.0,2.0,63,0.00,,,0.00,Wunderground v.1.15,2013-02-06 06:52:00,
2013-02-06 01:58:00,19.5,8.6,29.88,ESE,110,1.0,4.0,62,0.00,,,0.00,Wunderground v.1.15,2013-02-06 06:58:00,
2013-02-06 02:03:00,19.5,8.2,29.88,ESE,110,3.0,3.0,61,0.00,,,0.00,Wunderground v.1.15,2013-02-06 07:03:00,
2013-02-06 02:08:00,19.7,8.4,29.88,ESE,111,3.0,3.0,61,0.00,,,0.00,Wunderground v.1.15,2013-02-06 07:08:00,
2013-02-06 02:13:00,19.7,8.0,29.88,ESE,112,2.0,4.0,60,0.00,,,0.00,Wunderground v.1.15,2013-02-06 07:13:00,
2013-02-06 02:18:00,19.7,7.7,29.88,ESE,115,3.0,4.0,59,0.00,,,0.00,Wunderground v.1.15,2013-02-06 07:18:00,
2013-02-06 02:23:00,19.7,7.7,29.88,SE,125,5.0,5.0,59,0.00,,,0.00,Wunderground v.1.15,2013-02-06 07:23:00,
2013-02-06 02:28:00,19.7,8.0,29.88,SE,127,3.0,6.0,60,0.00,,,0.00,Wunderground v.1.15,2013-02-06 07:28:00,
2013-02-06 02:33:00,19.7,8.0,29.88,SE,132,3.0,5.0,60,0.00,,,0.00,Wunderground v.1.15,2013-02-06 07:33:00,
2013-02-06 02:38:00,19.7,8.4,29.88,SE,133,2.0,5.0,61,0.00,,,0.00,Wunderground v.1.15,2013-02-06 07:38:00,
2013-02-06 02:43:00,19.7,8.8,29.87,SE,133,2.0,4.0,62,0.00,,,0.00,Wunderground v.1.15,2013-02-06 07:43:00,
2013-02-06 02:48:00,19.7,8.8,29.87,SE,133,3.0,4.0,62,0.00,,,0.00,Wunderground v.1.15,2013-02-06 07:48:00,
2013-02-06 02:53:00,19.9,9.0,29.87,SE,133,0.0,2.0,62,0.00,,,0.00,Wunderground v.1.15,2013-02-06 07:53:00,
2013-02-06 02:58:00,19.9,9.0,29.87,SE,133,0.0,4.0,62,0.00,,,0.00,Wunderground v.1.15,2013-02-06 07:58:00,
2013-02-06 03:03:00,19.9,9.3,29.87,SE,133,0.0,3.0,63,0.00,,,0.00,Wunderground v.1.15,2013-02-06 08:03:00,
2013-02-06 03:08:00,19.9,9.3,29.87,SE,134,2.0,4.0,63,0.00,,,0.00,Wunderground v.1.15,2013-02-06 08:08:00,
2013-02-06 03:13:00,19.9,9.3,29.87,SE,134,2.0,2.0,63,0.00,,,0.00,Wunderground v.1.15,2013-02-06 08:13:00,
2013-02-06 03:18:00,19.9,9.3,29.87,SE,134,0.0,2.0,63,0.00,,,0.00,Wunderground v.1.15,2013-02-06 08:18:00,
2013-02-06 03:23:00,20.0,9.1,29.87,SE,135,2.0,5.0,62,0.00,,,0.00,Wunderground v.1.15,2013-02-06 08:23:00,
2013-02-06 03:28:00,20.3,9.3,29.87,SE,141,4.0,5.0,62,0.00,,,0.00,Wunderground v.1.15,2013-02-06 08:28:00,
2013-02-06 03:33:00,20.3,9.0,29.87,SE,146,2.0,5.0,61,0.00,,,0.00,Wunderground v.1.15,2013-02-06 08:33:00,
2013-02-06 03:38:00,20.5,9.2,29.87,SSE,161,4.0,6.0,61,0.00,,,0.00,Wunderground v.1.15,2013-02-06 08:38:00,
2013-02-06 03:43:00,20.5,8.8,29.87,SSE,167,3.0,6.0,60,0.00,,,0.00,Wunderground v.1.15,2013-02-06 08:43:00,
2013-02-06 03:48:00,20.5,9.2,29.87,South,172,4.0,6.0,61,0.00,,,0.00,Wunderground v.1.15,2013-02-06 08:48:00,
2013-02-06 03:53:00,20.5,9.2,29.87,South,172,2.0,4.0,61,0.00,,,0.00,Wunderground v.1.15,2013-02-06 08:53:00,
2013-02-06 03:58:00,20.6,9.3,29.87,South,172,2.0,4.0,61,0.00,,,0.00,Wunderground v.1.15,2013-02-06 08:58:00,
2013-02-06 04:03:00,20.6,9.3,29.87,South,172,2.0,3.0,61,0.00,,,0.00,Wunderground v.1.15,2013-02-06 09:03:00,
2013-02-06 04:08:00,20.6,9.3,29.87,South,172,2.0,3.0,61,0.00,,,0.00,Wunderground v.1.15,2013-02-06 09:08:00,
2013-02-06 04:13:00,20.8,9.5,29.88,South,172,2.0,2.0,61,0.00,,,0.00,Wunderground v.1.15,2013-02-06 09:13:00,
2013-02-06 04:18:00,20.6,9.6,29.88,South,172,0.0,2.0,62,0.00,,,0.00,Wunderground v.1.15,2013-02-06 09:18:00,
2013-02-06 04:23:00,20.6,9.6,29.88,South,172,0.0,0.0,62,0.00,,,0.00,Wunderground v.1.15,2013-02-06 09:23:00,
2013-02-06 04:28:00,20.6,10.0,29.88,South,172,0.0,1.0,63,0.00,,,0.00,Wunderground v.1.15,2013-02-06 09:28:00,
2013-02-06 04:33:00,20.6,10.0,29.88,South,172,1.0,2.0,63,0.00,,,0.00,Wunderground v.1.15,2013-02-06 09:33:00,
2013-02-06 04:38:00,20.8,10.5,29.88,South,172,2.0,3.0,64,0.00,,,0.00,Wunderground v.1.15,2013-02-06 09:38:00,
2013-02-06 04:43:00,20.8,10.5,29.88,South,172,1.0,4.0,64,0.00,,,0.00,Wunderground v.1.15,2013-02-06 09:43:00,
2013-02-06 04:49:00,21.0,10.7,29.88,South,171,5.0,6.0,64,0.00,,,0.00,Wunderground v.1.15,2013-02-06 09:49:00,
2013-02-06 04:54:00,21.1,10.8,29.88,South,171,5.0,5.0,64,0.00,,,0.00,Wunderground v.1.15,2013-02-06 09:54:00,
2013-02-06 04:59:00,21.3,11.0,29.88,SSE,168,3.0,7.0,64,0.00,,,0.00,Wunderground v.1.15,2013-02-06 09:59:00,
2013-02-06 05:04:00,21.3,11.4,29.88,SSE,165,4.0,7.0,65,0.00,,,0.00,Wunderground v.1.15,2013-02-06 10:04:00,
2013-02-06 05:09:00,21.4,11.1,29.88,SSE,164,8.0,10.0,64,0.00,,,0.00,Wunderground v.1.15,2013-02-06 10:09:00,
2013-02-06 05:14:00,21.6,11.3,29.88,SSE,163,4.0,10.0,64,0.00,,,0.00,Wunderground v.1.15,2013-02-06 10:14:00,
2013-02-06 05:19:00,21.8,11.5,29.88,SSE,165,5.0,10.0,64,0.00,,,0.00,Wunderground v.1.15,2013-02-06 10:19:00,
2013-02-06 05:24:00,21.8,11.5,29.88,SSE,159,3.0,12.0,64,0.00,,,0.00,Wunderground v.1.15,2013-02-06 10:24:00,
2013-02-06 05:29:00,21.8,11.8,29.88,SSE,159,5.0,12.0,65,0.00,,,0.00,Wunderground v.1.15,2013-02-06 10:29:00,
2013-02-06 05:34:00,21.9,12.3,29.88,SSE,158,4.0,10.0,66,0.00,,,0.00,Wunderground v.1.15,2013-02-06 10:34:00,
2013-02-06 05:39:00,21.9,12.3,29.88,SSE,160,5.0,10.0,66,0.00,,,0.00,Wunderground v.1.15,2013-02-06 10:39:00,
2013-02-06 05:44:00,22.2,12.6,29.88,SSE,161,4.0,6.0,66,0.00,,,0.00,Wunderground v.1.15,2013-02-06 10:44:00,
2013-02-06 05:49:00,22.4,12.8,29.88,SSE,162,3.0,6.0,66,0.00,,,0.00,Wunderground v.1.15,2013-02-06 10:49:00,
2013-02-06 05:54:00,22.4,12.8,29.88,SSE,163,3.0,5.0,66,0.00,,,0.00,Wunderground v.1.15,2013-02-06 10:54:00,
2013-02-06 05:59:00,22.5,12.8,29.88,SSE,163,5.0,6.0,66,0.00,,,0.00,Wunderground v.1.15,2013-02-06 10:59:00,
2013-02-06 06:04:00,22.5,13.2,29.88,SSE,163,1.0,5.0,67,0.00,,,0.00,Wunderground v.1.15,2013-02-06 11:04:00,
2013-02-06 06:09:00,22.5,13.2,29.88,SSE,163,2.0,5.0,67,0.00,,,0.00,Wunderground v.1.15,2013-02-06 11:09:00,
2013-02-06 06:14:00,22.7,13.7,29.88,SSE,163,3.0,4.0,68,0.00,,,0.00,Wunderground v.1.15,2013-02-06 11:14:00,
2013-02-06 06:19:00,22.9,13.9,29.88,SSE,163,5.0,5.0,68,0.00,,,0.00,Wunderground v.1.15,2013-02-06 11:19:00,
2013-02-06 06:24:00,22.9,13.9,29.88,SE,132,4.0,10.0,68,0.00,,,0.00,Wunderground v.1.15,2013-02-06 11:24:00,
2013-02-06 06:29:00,23.0,14.3,29.88,SE,142,5.0,10.0,69,0.00,,,0.00,Wunderground v.1.15,2013-02-06 11:29:00,
2013-02-06 06:34:00,23.0,14.3,29.88,SE,143,3.0,6.0,69,0.00,,,0.00,Wunderground v.1.15,2013-02-06 11:34:00,
2013-02-06 06:39:00,23.2,14.5,29.88,SE,143,3.0,6.0,69,0.00,,,0.00,Wunderground v.1.15,2013-02-06 11:39:00,
2013-02-06 06:44:00,23.3,14.6,29.90,SE,143,3.0,6.0,69,0.00,,,0.00,Wunderground v.1.15,2013-02-06 11:44:00,
2013-02-06 06:49:00,23.3,14.6,29.90,SE,143,3.0,6.0,69,0.00,,,0.00,Wunderground v.1.15,2013-02-06 11:49:00,
2013-02-06 06:55:00,23.6,15.2,29.90,SE,146,4.0,6.0,70,0.00,,,0.00,Wunderground v.1.15,2013-02-06 11:55:00,
2013-02-06 07:00:00,23.9,15.5,29.90,SE,146,4.0,4.0,70,0.00,,,0.00,Wunderground v.1.15,2013-02-06 12:00:00,
2013-02-06 07:05:00,24.1,15.7,29.90,SE,146,0.0,6.0,70,0.00,,,0.00,Wunderground v.1.15,2013-02-06 12:05:00,
2013-02-06 07:10:00,24.2,15.8,29.90,SE,146,0.0,1.0,70,0.00,,,0.00,Wunderground v.1.15,2013-02-06 12:10:00,
2013-02-06 07:15:00,24.4,16.3,29.91,South,169,5.0,7.0,71,0.00,,,0.00,Wunderground v.1.15,2013-02-06 12:15:00,
2013-02-06 07:20:00,24.4,16.3,29.91,South,170,3.0,4.0,71,0.00,,,0.00,Wunderground v.1.15,2013-02-06 12:20:00,
2013-02-06 07:25:00,24.5,16.8,29.91,South,175,4.0,8.0,72,0.00,,,0.00,Wunderground v.1.15,2013-02-06 12:25:00,
2013-02-06 07:30:00,24.5,16.8,29.91,South,175,2.0,3.0,72,0.00,,,0.00,Wunderground v.1.15,2013-02-06 12:30:00,
2013-02-06 07:35:00,24.5,17.1,29.91,South,175,2.0,5.0,73,0.00,,,0.00,Wunderground v.1.15,2013-02-06 12:35:00,
2013-02-06 07:40:00,24.7,17.3,29.91,South,175,0.0,2.0,73,0.00,,,0.00,Wunderground v.1.15,2013-02-06 12:40:00,
2013-02-06 07:45:00,24.7,17.0,29.92,South,175,0.0,3.0,72,0.00,,,0.00,Wunderground v.1.15,2013-02-06 12:45:00,
2013-02-06 07:50:00,24.8,17.1,29.92,South,175,7.0,7.0,72,0.00,,,0.00,Wunderground v.1.15,2013-02-06 12:50:00,
2013-02-06 07:55:00,24.8,17.4,29.92,South,184,7.0,16.0,73,0.00,,,0.00,Wunderground v.1.15,2013-02-06 12:55:00,
2013-02-06 08:00:00,24.8,17.7,29.92,South,184,3.0,8.0,74,0.00,,,0.00,Wunderground v.1.15,2013-02-06 13:00:00,
2013-02-06 08:05:00,24.8,17.4,29.92,South,178,5.0,12.0,73,0.00,,,0.00,Wunderground v.1.15,2013-02-06 13:05:00,
2013-02-06 08:11:00,24.8,17.4,29.92,South,184,6.0,6.0,73,0.00,,,0.00,Wunderground v.1.15,2013-02-06 13:11:00,
2013-02-06 08:16:00,25.0,17.2,29.92,South,186,3.0,11.0,72,0.00,,,0.00,Wunderground v.1.15,2013-02-06 13:16:00,
2013-02-06 08:21:00,25.0,17.2,29.92,South,186,4.0,6.0,72,0.00,,,0.00,Wunderground v.1.15,2013-02-06 13:21:00,
2013-02-06 08:26:00,25.1,17.3,29.93,South,186,5.0,8.0,72,0.00,,,0.00,Wunderground v.1.15,2013-02-06 13:26:00,
2013-02-06 08:31:00,25.1,17.3,29.93,South,184,1.0,5.0,72,0.00,,,0.00,Wunderground v.1.15,2013-02-06 13:31:00,
2013-02-06 08:36:00,25.1,17.3,29.93,South,185,4.0,8.0,72,0.00,,,0.00,Wunderground v.1.15,2013-02-06 13:36:00,
2013-02-06 08:41:00,25.3,17.5,29.93,South,182,3.0,5.0,72,0.00,,,0.00,Wunderground v.1.15,2013-02-06 13:41:00,
2013-02-06 08:46:00,25.4,17.6,29.93,SSW,192,6.0,8.0,72,0.00,,,0.00,Wunderground v.1.15,2013-02-06 13:46:00,
2013-02-06 08:51:00,25.4,17.9,29.93,South,187,3.0,6.0,73,0.00,,,0.00,Wunderground v.1.15,2013-02-06 13:51:00,
2013-02-06 08:56:00,25.6,18.1,29.93,SSW,192,5.0,11.0,73,0.00,,,0.00,Wunderground v.1.15,2013-02-06 13:56:00,
2013-02-06 09:01:00,25.6,18.1,29.93,South,171,3.0,6.0,73,0.00,,,0.00,Wunderground v.1.15,2013-02-06 14:01:00,
2013-02-06 09:06:00,25.7,18.2,29.93,South,190,5.0,10.0,73,0.00,,,0.00,Wunderground v.1.15,2013-02-06 14:06:00,
2013-02-06 09:11:00,25.8,18.3,29.93,South,190,9.0,12.0,73,0.00,,,0.00,Wunderground v.1.15,2013-02-06 14:11:00,
2013-02-06 09:16:00,26.1,18.6,29.93,South,175,10.0,12.0,73,0.00,,,0.00,Wunderground v.1.15,2013-02-06 14:16:00,
2013-02-06 09:21:00,26.4,18.6,29.93,South,180,7.0,11.0,72,0.00,,,0.00,Wunderground v.1.15,2013-02-06 14:21:00,
2013-02-06 09:26:00,26.6,18.5,29.93,SSE,155,12.0,15.0,71,0.00,,,0.00,Wunderground v.1.15,2013-02-06 14:26:00,
2013-02-06 09:31:00,26.7,18.6,29.93,South,184,12.0,12.0,71,0.00,,,0.00,Wunderground v.1.15,2013-02-06 14:31:00,
2013-02-06 09:36:00,27.2,18.7,29.93,SSW,199,9.0,16.0,70,0.00,,,0.00,Wunderground v.1.15,2013-02-06 14:36:00,
2013-02-06 09:41:00,27.6,18.8,29.94,SSW,205,9.0,11.0,69,0.00,,,0.00,Wunderground v.1.15,2013-02-06 14:41:00,
2013-02-06 09:46:00,27.8,18.9,29.94,SSW,196,3.0,17.0,69,0.00,,,0.00,Wunderground v.1.15,2013-02-06 14:46:00,
2013-02-06 09:51:00,27.9,18.7,29.94,South,191,9.0,12.0,68,0.00,,,0.00,Wunderground v.1.15,2013-02-06 14:51:00,
2013-02-06 09:56:00,27.8,18.6,29.94,SSW,200,4.0,14.0,68,0.00,,,0.00,Wunderground v.1.15,2013-02-06 14:56:00,
2013-02-06 10:01:00,27.9,19.0,29.94,SSW,209,7.0,10.0,69,0.00,,,0.00,Wunderground v.1.15,2013-02-06 15:01:00,
2013-02-06 10:06:00,28.1,18.9,29.94,SW,221,7.0,13.0,68,0.00,,,0.00,Wunderground v.1.15,2013-02-06 15:06:00,
2013-02-06 10:11:00,28.2,19.3,29.95,SW,231,14.0,14.0,69,0.00,,,0.00,Wunderground v.1.15,2013-02-06 15:11:00,
2013-02-06 10:16:00,27.9,19.0,29.95,SSW,194,7.0,16.0,69,0.00,,,0.00,Wunderground v.1.15,2013-02-06 15:16:00,
2013-02-06 10:21:00,27.9,19.0,29.95,SSW,205,6.0,10.0,69,0.00,,,0.00,Wunderground v.1.15,2013-02-06 15:21:00,
2013-02-06 10:26:00,27.9,19.0,29.95,SSW,211,9.0,12.0,69,0.00,,,0.00,Wunderground v.1.15,2013-02-06 15:26:00,
2013-02-06 10:32:00,28.1,19.2,29.95,SSW,205,3.0,13.0,69,0.00,,,0.00,Wunderground v.1.15,2013-02-06 15:32:00,
2013-02-06 10:37:00,28.4,19.5,29.95,SSW,209,7.0,13.0,69,0.00,,,0.00,Wunderground v.1.15,2013-02-06 15:37:00,
2013-02-06 10:42:00,28.7,19.8,29.96,SSW,198,5.0,10.0,69,0.00,,,0.00,Wunderground v.1.15,2013-02-06 15:42:00,
2013-02-06 10:48:00,28.8,19.9,29.96,SSW,194,10.0,13.0,69,0.00,,,0.00,Wunderground v.1.15,2013-02-06 15:48:00,
2013-02-06 10:53:00,29.0,20.1,29.96,SW,216,5.0,8.0,69,0.00,,,0.00,Wunderground v.1.15,2013-02-06 15:53:00,
2013-02-06 10:58:00,29.3,20.0,29.96,SSW,206,3.0,10.0,68,0.00,,,0.00,Wunderground v.1.15,2013-02-06 15:58:00,
2013-02-06 11:03:00,29.4,19.8,29.96,SSW,209,6.0,8.0,67,0.00,,,0.00,Wunderground v.1.15,2013-02-06 16:03:00,
2013-02-06 11:08:00,29.5,19.9,29.96,SSW,211,4.0,8.0,67,0.00,,,0.00,Wunderground v.1.15,2013-02-06 16:08:00,
2013-02-06 11:13:00,29.5,20.2,29.97,SW,224,5.0,11.0,68,0.00,,,0.00,Wunderground v.1.15,2013-02-06 16:13:00,
2013-02-06 11:19:00,29.7,20.1,29.97,SW,231,6.0,11.0,67,0.00,,,0.00,Wunderground v.1.15,2013-02-06 16:19:00,
2013-02-06 11:24:00,30.0,20.4,29.97,West,267,9.0,10.0,67,0.00,,,0.00,Wunderground v.1.15,2013-02-06 16:24:00,
2013-02-06 11:29:00,29.4,20.5,29.98,NW,306,3.0,10.0,69,0.00,,,0.00,Wunderground v.1.15,2013-02-06 16:29:00,
2013-02-06 11:34:00,29.4,21.2,29.98,NW,314,2.0,6.0,71,0.00,,,0.00,Wunderground v.1.15,2013-02-06 16:34:00,
2013-02-06 11:39:00,29.3,22.4,29.98,NW,314,0.0,6.0,75,0.00,,,0.00,Wunderground v.1.15,2013-02-06 16:39:00,
2013-02-06 11:44:00,29.5,22.6,29.98,NW,314,1.0,3.0,75,0.00,,,0.00,Wunderground v.1.15,2013-02-06 16:44:00,
2013-02-06 11:49:00,29.5,23.2,29.98,NW,314,0.0,4.0,77,0.00,,,0.00,Wunderground v.1.15,2013-02-06 16:49:00,
2013-02-06 11:54:00,30.1,24.1,29.98,NW,314,0.0,2.0,78,0.00,,,0.00,Wunderground v.1.15,2013-02-06 16:54:00,
2013-02-06 11:59:00,30.1,21.8,29.98,NW,306,4.0,6.0,71,0.00,,,0.00,Wunderground v.1.15,2013-02-06 16:59:00,
2013-02-06 12:04:00,30.1,21.8,29.98,NW,309,0.0,5.0,71,0.00,,,0.00,Wunderground v.1.15,2013-02-06 17:04:00,
2013-02-06 12:09:00,30.3,21.3,29.98,NW,310,1.0,5.0,69,0.00,,,0.00,Wunderground v.1.15,2013-02-06 17:09:00,
2013-02-06 12:14:00,30.4,21.1,29.99,NW,316,1.0,10.0,68,0.00,,,0.00,Wunderground v.1.15,2013-02-06 17:14:00,
2013-02-06 12:19:00,31.0,21.3,29.99,North,5,4.0,11.0,67,0.00,,,0.00,Wunderground v.1.15,2013-02-06 17:19:00,
2013-02-06 12:24:00,30.0,20.0,29.99,NNW,340,6.0,14.0,66,0.00,,,0.00,Wunderground v.1.15,2013-02-06 17:24:00,
2013-02-06 12:29:00,29.4,20.1,30.00,North,5,4.0,14.0,68,0.00,,,0.00,Wunderground v.1.15,2013-02-06 17:29:00,
2013-02-06 12:34:00,29.1,20.5,30.00,North,10,2.0,13.0,70,0.00,,,0.00,Wunderground v.1.15,2013-02-06 17:34:00,
2013-02-06 12:39:00,29.0,21.4,30.00,ENE,57,5.0,13.0,73,0.00,,,0.00,Wunderground v.1.15,2013-02-06 17:39:00,
2013-02-06 12:44:00,28.7,21.5,30.00,ENE,74,10.0,13.0,74,0.00,,,0.00,Wunderground v.1.15,2013-02-06 17:44:00,
2013-02-06 12:50:00,28.8,21.2,30.00,ENE,71,9.0,13.0,73,0.00,,,0.00,Wunderground v.1.15,2013-02-06 17:50:00,
2013-02-06 12:55:00,29.7,20.4,30.00,ENE,63,6.0,11.0,68,0.00,,,0.00,Wunderground v.1.15,2013-02-06 17:55:00,
2013-02-06 13:00:00,31.3,20.9,30.01,NNE,14,0.0,12.0,65,0.00,,,0.00,Wunderground v.1.15,2013-02-06 18:00:00,
2013-02-06 13:05:00,32.9,20.5,30.01,NE,50,2.0,6.0,60,0.00,,,0.00,Wunderground v.1.15,2013-02-06 18:05:00,
2013-02-06 13:10:00,33.5,19.5,30.01,NNW,329,2.0,9.0,56,0.00,,,0.00,Wunderground v.1.15,2013-02-06 18:10:00,
2013-02-06 13:15:00,34.6,20.5,30.02,North,355,4.0,8.0,56,0.00,,,0.00,Wunderground v.1.15,2013-02-06 18:15:00,
2013-02-06 13:19:00,34.4,13.6,30.02,NNW,337,11.0,16.0,42,0.00,,,0.00,Wunderground v.1.15,2013-02-06 18:19:00,
2013-02-06 13:24:00,33.1,10.2,30.02,NW,317,16.0,18.0,38,0.00,,,0.00,Wunderground v.1.15,2013-02-06 18:24:00,
2013-02-06 13:29:00,31.5,8.2,30.02,West,275,10.0,18.0,37,0.00,,,0.00,Wunderground v.1.15,2013-02-06 18:29:00,
2013-02-06 13:34:00,30.6,8.0,30.02,WNW,303,13.0,19.0,38,0.00,,,0.00,Wunderground v.1.15,2013-02-06 18:34:00,
2013-02-06 13:39:00,30.3,8.8,30.02,West,271,5.0,19.0,40,0.00,,,0.00,Wunderground v.1.15,2013-02-06 18:39:00,
2013-02-06 13:44:00,30.4,8.9,30.02,WSW,246,10.0,16.0,40,0.00,,,0.00,Wunderground v.1.15,2013-02-06 18:44:00,
2013-02-06 13:49:00,30.4,8.9,30.02,WNW,294,7.0,16.0,40,0.00,,,0.00,Wunderground v.1.15,2013-02-06 18:49:00,
2013-02-06 13:54:00,30.3,8.8,30.02,NW,324,3.0,18.0,40,0.00,,,0.00,Wunderground v.1.15,2013-02-06 18:54:00,
2013-02-06 13:59:00,30.4,13.0,30.03,NNW,327,6.0,18.0,48,0.00,,,0.00,Wunderground v.1.15,2013-02-06 18:59:00,
2013-02-06 14:04:00,30.6,12.2,30.03,NNW,329,2.0,14.0,46,0.00,,,0.00,Wunderground v.1.15,2013-02-06 19:04:00,
2013-02-06 14:09:00,30.4,12.5,30.03,NW,314,6.0,14.0,47,0.00,,,0.00,Wunderground v.1.15,2013-02-06 19:09:00,
2013-02-06 14:15:00,30.9,12.5,30.04,NNW,339,2.0,12.0,46,0.00,,,0.00,Wunderground v.1.15,2013-02-06 19:15:00,
2013-02-06 14:20:00,32.1,13.1,30.04,NW,325,1.0,4.0,45,0.00,,,0.00,Wunderground v.1.15,2013-02-06 19:20:00,
2013-02-06 14:25:00,33.2,12.0,30.04,NW,325,2.0,7.0,41,0.00,,,0.00,Wunderground v.1.15,2013-02-06 19:25:00,
2013-02-06 14:30:00,34.7,12.8,30.05,NW,326,0.0,2.0,40,0.00,,,0.00,Wunderground v.1.15,2013-02-06 19:30:00,
2013-02-06 14:35:00,34.6,10.3,30.05,NW,322,18.0,21.0,36,0.00,,,0.00,Wunderground v.1.15,2013-02-06 19:35:00,
2013-02-06 14:40:00,32.7,11.0,30.05,NNW,344,11.0,11.0,40,0.00,,,0.00,Wunderground v.1.15,2013-02-06 19:40:00,
2013-02-06 14:45:00,33.2,10.3,30.06,NW,324,4.0,14.0,38,0.00,,,0.00,Wunderground v.1.15,2013-02-06 19:45:00,
2013-02-06 14:50:00,33.2,8.5,30.06,NNW,335,3.0,7.0,35,0.00,,,0.00,Wunderground v.1.15,2013-02-06 19:50:00,
2013-02-06 14:55:00,33.1,7.1,30.07,NNW,329,11.0,13.0,33,0.00,,,0.00,Wunderground v.1.15,2013-02-06 19:55:00,
2013-02-06 15:00:00,32.2,6.3,30.07,NW,325,1.0,7.0,33,0.00,,,0.00,Wunderground v.1.15,2013-02-06 20:00:00,
2013-02-06 15:06:00,30.9,3.0,30.07,NW,304,17.0,18.0,30,0.00,,,0.00,Wunderground v.1.15,2013-02-06 20:06:00,
2013-02-06 15:11:00,29.7,2.7,30.08,NW,313,9.0,16.0,31,0.00,,,0.00,Wunderground v.1.15,2013-02-06 20:11:00,
2013-02-06 15:16:00,29.7,3.4,30.08,NW,312,13.0,16.0,32,0.00,,,0.00,Wunderground v.1.15,2013-02-06 20:16:00,
2013-02-06 15:21:00,29.8,1.4,30.08,NW,322,3.0,12.0,29,0.00,,,0.00,Wunderground v.1.15,2013-02-06 20:21:00,
2013-02-06 15:26:00,30.0,2.3,30.10,NNW,340,13.0,19.0,30,0.00,,,0.00,Wunderground v.1.15,2013-02-06 20:26:00,
2013-02-06 15:31:00,29.7,3.4,30.10,NW,306,7.0,11.0,32,0.00,,,0.00,Wunderground v.1.15,2013-02-06 20:31:00,
2013-02-06 15:36:00,29.7,4.1,30.10,NW,326,3.0,13.0,33,0.00,,,0.00,Wunderground v.1.15,2013-02-06 20:36:00,
2013-02-06 15:41:00,30.0,4.3,30.11,NW,317,4.0,16.0,33,0.00,,,0.00,Wunderground v.1.15,2013-02-06 20:41:00,
2013-02-06 15:46:00,29.4,3.1,30.11,WNW,302,7.0,19.0,32,0.00,,,0.00,Wunderground v.1.15,2013-02-06 20:46:00,
2013-02-06 15:51:00,29.0,3.4,30.11,NW,321,1.0,10.0,33,0.00,,,0.00,Wunderground v.1.15,2013-02-06 20:51:00,
2013-02-06 15:56:00,29.4,4.4,30.11,NW,323,5.0,10.0,34,0.00,,,0.00,Wunderground v.1.15,2013-02-06 20:56:00,
2013-02-06 16:02:00,28.7,2.5,30.11,NW,319,13.0,15.0,32,0.00,,,0.00,Wunderground v.1.15,2013-02-06 21:02:00,
2013-02-06 16:07:00,27.6,3.5,30.11,WNW,302,6.0,19.0,35,0.00,,,0.00,Wunderground v.1.15,2013-02-06 21:07:00,
2013-02-06 16:12:00,27.5,4.6,30.13,NW,314,9.0,10.0,37,0.00,,,0.00,Wunderground v.1.15,2013-02-06 21:12:00,
2013-02-06 16:17:00,27.5,5.2,30.13,NW,326,9.0,14.0,38,0.00,,,0.00,Wunderground v.1.15,2013-02-06 21:17:00,
2013-02-06 16:22:00,27.3,5.6,30.13,NW,326,4.0,10.0,39,0.00,,,0.00,Wunderground v.1.15,2013-02-06 21:22:00,
2013-02-06 16:27:00,27.2,4.3,30.13,NW,313,10.0,13.0,37,0.00,,,0.00,Wunderground v.1.15,2013-02-06 21:27:00,
2013-02-06 16:32:00,26.6,4.9,30.13,NW,316,15.0,15.0,39,0.00,,,0.00,Wunderground v.1.15,2013-02-06 21:32:00,
2013-02-06 16:38:00,26.3,4.1,30.13,NNW,340,2.0,16.0,38,0.00,,,0.00,Wunderground v.1.15,2013-02-06 21:38:00,
2013-02-06 16:43:00,26.0,4.4,30.15,NNW,327,3.0,14.0,39,0.00,,,0.00,Wunderground v.1.15,2013-02-06 21:43:00,
2013-02-06 16:48:00,25.6,4.0,30.15,NNW,336,4.0,14.0,39,0.00,,,0.00,Wunderground v.1.15,2013-02-06 21:48:00,
2013-02-06 16:54:00,25.1,4.1,30.15,NW,312,9.0,16.0,40,0.00,,,0.00,Wunderground v.1.15,2013-02-06 21:54:00,
2013-02-06 16:59:00,24.7,3.2,30.16,NW,323,12.0,16.0,39,0.00,,,0.00,Wunderground v.1.15,2013-02-06 21:59:00,
2013-02-06 17:04:00,24.1,1.5,30.16,NNW,329,2.0,16.0,37,0.00,,,0.00,Wunderground v.1.15,2013-02-06 22:04:00,
2013-02-06 17:09:00,23.6,-0.1,30.16,NNW,347,11.0,16.0,35,0.00,,,0.00,Wunderground v.1.15,2013-02-06 22:09:00,
2013-02-06 17:15:00,23.3,0.2,30.18,NW,325,1.0,9.0,36,0.00,,,0.00,Wunderground v.1.15,2013-02-06 22:15:00,
2013-02-06 17:19:00,23.0,-0.6,30.18,NNW,327,4.0,12.0,35,0.00,,,0.00,Wunderground v.1.15,2013-02-06 22:19:00,
2013-02-06 17:24:00,22.9,-1.3,30.18,NW,308,3.0,11.0,34,0.00,,,0.00,Wunderground v.1.15,2013-02-06 22:24:00,
2013-02-06 17:29:00,22.5,-2.3,30.19,NNW,331,14.0,16.0,33,0.00,,,0.00,Wunderground v.1.15,2013-02-06 22:29:00,
2013-02-06 17:34:00,22.4,-3.1,30.19,NW,325,13.0,16.0,32,0.00,,,0.00,Wunderground v.1.15,2013-02-06 22:34:00,
2013-02-06 17:39:00,22.2,-2.0,30.19,NNW,331,1.0,16.0,34,0.00,,,0.00,Wunderground v.1.15,2013-02-06 22:39:00,
2013-02-06 17:44:00,21.9,-1.0,30.21,NNW,327,3.0,9.0,36,0.00,,,0.00,Wunderground v.1.15,2013-02-06 22:44:00,
2013-02-06 17:49:00,21.8,-2.9,30.21,NNW,332,3.0,12.0,33,0.00,,,0.00,Wunderground v.1.15,2013-02-06 22:49:00,
2013-02-06 17:54:00,21.6,-4.4,30.21,NW,320,9.0,14.0,31,0.00,,,0.00,Wunderground v.1.15,2013-02-06 22:54:00,
2013-02-06 17:59:00,21.4,-3.9,30.22,NW,318,1.0,14.0,32,0.00,,,0.00,Wunderground v.1.15,2013-02-06 22:59:00,
2013-02-06 18:04:00,21.4,-5.3,30.22,NNW,331,5.0,12.0,30,0.00,,,0.00,Wunderground v.1.15,2013-02-06 23:04:00,
2013-02-06 18:10:00,21.3,-4.0,30.22,NNW,329,3.0,6.0,32,0.00,,,0.00,Wunderground v.1.15,2013-02-06 23:10:00,
2013-02-06 18:15:00,21.0,-3.7,30.24,NNW,333,4.0,10.0,33,0.00,,,0.00,Wunderground v.1.15,2013-02-06 23:15:00,
2013-02-06 18:20:00,20.8,-3.8,30.24,NW,324,3.0,4.0,33,0.00,,,0.00,Wunderground v.1.15,2013-02-06 23:20:00,
2013-02-06 18:25:00,20.5,-3.5,30.25,NW,326,0.0,9.0,34,0.00,,,0.00,Wunderground v.1.15,2013-02-06 23:25:00,
2013-02-06 18:30:00,20.2,-3.7,30.25,NNW,329,2.0,6.0,34,0.00,,,0.00,Wunderground v.1.15,2013-02-06 23:30:00,
2013-02-06 18:35:00,19.7,-4.2,30.25,NNW,333,4.0,6.0,34,0.00,,,0.00,Wunderground v.1.15,2013-02-06 23:35:00,
2013-02-06 18:40:00,19.5,-4.4,30.26,NNW,344,3.0,4.0,34,0.00,,,0.00,Wunderground v.1.15,2013-02-06 23:40:00,
2013-02-06 18:46:00,19.4,-4.5,30.26,North,350,0.0,6.0,34,0.00,,,0.00,Wunderground v.1.15,2013-02-06 23:46:00,
2013-02-06 18:51:00,19.4,-5.1,30.26,NNW,339,3.0,6.0,33,0.00,,,0.00,Wunderground v.1.15,2013-02-06 23:51:00,
2013-02-06 18:56:00,19.4,-5.7,30.27,NNW,347,2.0,11.0,32,0.00,,,0.00,Wunderground v.1.15,2013-02-06 23:56:00,
2013-02-06 19:01:00,19.2,-5.9,30.27,NNW,336,3.0,12.0,32,0.00,,,0.00,Wunderground v.1.15,2013-02-07 00:01:00,
2013-02-06 19:06:00,19.4,-7.7,30.27,North,350,1.0,12.0,29,0.00,,,0.00,Wunderground v.1.15,2013-02-07 00:06:00,
2013-02-06 19:11:00,19.4,-7.7,30.27,NNW,342,2.0,9.0,29,0.00,,,0.00,Wunderground v.1.15,2013-02-07 00:11:00,
2013-02-06 19:16:00,19.2,-4.6,30.27,NE,40,5.0,9.0,34,0.00,,,0.00,Wunderground v.1.15,2013-02-07 00:16:00,
2013-02-06 19:22:00,18.9,-4.9,30.27,NE,47,12.0,12.0,34,0.00,,,0.00,Wunderground v.1.15,2013-02-07 00:22:00,
2013-02-06 19:27:00,18.6,-5.8,30.28,NE,40,10.0,14.0,33,0.00,,,0.00,Wunderground v.1.15,2013-02-07 00:27:00,
2013-02-06 19:32:00,18.4,-6.0,30.28,NE,39,10.0,11.0,33,0.00,,,0.00,Wunderground v.1.15,2013-02-07 00:32:00,
2013-02-06 19:37:00,18.4,-6.0,30.28,NNE,29,13.0,15.0,33,0.00,,,0.00,Wunderground v.1.15,2013-02-07 00:37:00,
2013-02-06 19:42:00,18.3,-6.1,30.29,NE,38,7.0,11.0,33,0.00,,,0.00,Wunderground v.1.15,2013-02-07 00:42:00,
2013-02-06 19:47:00,18.0,-5.7,30.29,NE,53,12.0,15.0,34,0.00,,,0.00,Wunderground v.1.15,2013-02-07 00:47:00,
2013-02-06 19:52:00,17.8,-5.9,30.29,ENE,61,5.0,14.0,34,0.00,,,0.00,Wunderground v.1.15,2013-02-07 00:52:00,
2013-02-06 19:57:00,17.8,-5.9,30.30,NE,45,13.0,14.0,34,0.00,,,0.00,Wunderground v.1.15,2013-02-07 00:57:00,
2013-02-06 20:02:00,17.8,-5.9,30.30,ENE,57,6.0,12.0,34,0.00,,,0.00,Wunderground v.1.15,2013-02-07 01:02:00,
2013-02-06 20:07:00,17.7,-5.4,30.30,NE,35,10.0,16.0,35,0.00,,,0.00,Wunderground v.1.15,2013-02-07 01:07:00,
2013-02-06 20:12:00,17.5,-5.5,30.30,NE,37,11.0,14.0,35,0.00,,,0.00,Wunderground v.1.15,2013-02-07 01:12:00,
2013-02-06 20:17:00,17.3,-5.1,30.30,NE,34,8.0,14.0,36,0.00,,,0.00,Wunderground v.1.15,2013-02-07 01:17:00,
2013-02-06 20:22:00,17.3,-4.6,30.30,NNE,22,9.0,12.0,37,0.00,,,0.00,Wunderground v.1.15,2013-02-07 01:22:00,
2013-02-06 20:27:00,17.2,-4.7,30.31,NE,34,7.0,14.0,37,0.00,,,0.00,Wunderground v.1.15,2013-02-07 01:27:00,
2013-02-06 20:32:00,17.2,-4.1,30.31,NNE,30,10.0,13.0,38,0.00,,,0.00,Wunderground v.1.15,2013-02-07 01:32:00,
2013-02-06 20:37:00,17.3,-2.9,30.31,North,5,4.0,18.0,40,0.00,,,0.00,Wunderground v.1.15,2013-02-07 01:37:00,
2013-02-06 20:42:00,17.2,-3.0,30.32,NNE,21,13.0,16.0,40,0.00,,,0.00,Wunderground v.1.15,2013-02-07 01:42:00,
2013-02-06 20:47:00,17.0,-5.4,30.32,NNE,26,10.0,16.0,36,0.00,,,0.00,Wunderground v.1.15,2013-02-07 01:47:00,
2013-02-06 20:52:00,17.0,-6.0,30.32,NNE,20,10.0,16.0,35,0.00,,,0.00,Wunderground v.1.15,2013-02-07 01:52:00,
2013-02-06 20:57:00,16.7,-5.7,30.33,NNE,18,4.0,16.0,36,0.00,,,0.00,Wunderground v.1.15,2013-02-07 01:57:00,
2013-02-06 21:02:00,16.1,-5.6,30.33,ENE,68,10.0,15.0,37,0.00,,,0.00,Wunderground v.1.15,2013-02-07 02:02:00,
2013-02-06 21:07:00,15.6,-5.5,30.33,ENE,57,10.0,16.0,38,0.00,,,0.00,Wunderground v.1.15,2013-02-07 02:07:00,
2013-02-06 21:12:00,15.4,-5.2,30.34,ENE,67,9.0,14.0,39,0.00,,,0.00,Wunderground v.1.15,2013-02-07 02:12:00,
2013-02-06 21:17:00,15.2,-5.4,30.34,NE,56,15.0,15.0,39,0.00,,,0.00,Wunderground v.1.15,2013-02-07 02:17:00,
2013-02-06 21:22:00,15.1,-4.9,30.34,NNE,26,12.0,13.0,40,0.00,,,0.00,Wunderground v.1.15,2013-02-07 02:22:00,
2013-02-06 21:28:00,15.1,-4.9,30.35,NE,40,9.0,15.0,40,0.00,,,0.00,Wunderground v.1.15,2013-02-07 02:28:00,
2013-02-06 21:33:00,14.9,-5.1,30.35,NNE,17,7.0,13.0,40,0.00,,,0.00,Wunderground v.1.15,2013-02-07 02:33:00,
2013-02-06 21:38:00,14.6,-5.9,30.35,NNE,30,11.0,15.0,39,0.00,,,0.00,Wunderground v.1.15,2013-02-07 02:38:00,
2013-02-06 21:43:00,14.4,-5.6,30.35,NNE,24,9.0,11.0,40,0.00,,,0.00,Wunderground v.1.15,2013-02-07 02:43:00,
2013-02-06 21:48:00,14.1,-5.8,30.35,ENE,59,14.0,15.0,40,0.00,,,0.00,Wunderground v.1.15,2013-02-07 02:48:00,
2013-02-06 21:53:00,14.0,-5.4,30.35,NE,48,4.0,11.0,41,0.00,,,0.00,Wunderground v.1.15,2013-02-07 02:53:00,
2013-02-06 21:58:00,13.6,-5.8,30.35,NE,42,12.0,13.0,41,0.00,,,0.00,Wunderground v.1.15,2013-02-07 02:58:00,
2013-02-06 22:03:00,13.5,-6.4,30.35,ENE,65,6.0,12.0,40,0.00,,,0.00,Wunderground v.1.15,2013-02-07 03:03:00,
2013-02-06 22:08:00,13.3,-6.1,30.35,ENE,74,8.0,13.0,41,0.00,,,0.00,Wunderground v.1.15,2013-02-07 03:08:00,
2013-02-06 22:13:00,13.3,-6.1,30.36,NE,38,13.0,16.0,41,0.00,,,0.00,Wunderground v.1.15,2013-02-07 03:13:00,
2013-02-06 22:18:00,13.1,-6.7,30.36,ENE,76,9.0,16.0,40,0.00,,,0.00,Wunderground v.1.15,2013-02-07 03:18:00,
2013-02-06 22:23:00,12.9,-6.9,30.36,NNE,33,13.0,16.0,40,0.00,,,0.00,Wunderground v.1.15,2013-02-07 03:23:00,
2013-02-06 22:28:00,12.9,-6.4,30.35,NE,50,6.0,17.0,41,0.00,,,0.00,Wunderground v.1.15,2013-02-07 03:28:00,
2013-02-06 22:33:00,12.8,-7.0,30.35,ENE,76,10.0,13.0,40,0.00,,,0.00,Wunderground v.1.15,2013-02-07 03:33:00,
2013-02-06 22:39:00,12.6,-7.2,30.35,ENE,67,5.0,16.0,40,0.00,,,0.00,Wunderground v.1.15,2013-02-07 03:39:00,
2013-02-06 22:44:00,12.6,-7.2,30.36,ENE,60,8.0,15.0,40,0.00,,,0.00,Wunderground v.1.15,2013-02-07 03:44:00,
2013-02-06 22:49:00,12.6,-7.2,30.36,NE,38,12.0,15.0,40,0.00,,,0.00,Wunderground v.1.15,2013-02-07 03:49:00,
2013-02-06 22:54:00,12.4,-7.4,30.36,ENE,69,5.0,15.0,40,0.00,,,0.00,Wunderground v.1.15,2013-02-07 03:54:00,
2013-02-06 22:59:00,12.3,-7.5,30.36,ENE,69,12.0,15.0,40,0.00,,,0.00,Wunderground v.1.15,2013-02-07 03:59:00,
2013-02-06 23:04:00,12.3,-7.0,30.36,NE,40,7.0,11.0,41,0.00,,,0.00,Wunderground v.1.15,2013-02-07 04:04:00,
2013-02-06 23:09:00,12.1,-6.6,30.36,ENE,74,9.0,11.0,42,0.00,,,0.00,Wunderground v.1.15,2013-02-07 04:09:00,
2013-02-06 23:15:00,11.9,-7.8,30.37,NE,46,10.0,14.0,40,0.00,,,0.00,Wunderground v.1.15,2013-02-07 04:15:00,
2013-02-06 23:20:00,11.9,-7.3,30.37,ENE,62,7.0,10.0,41,0.00,,,0.00,Wunderground v.1.15,2013-02-07 04:20:00,
2013-02-06 23:25:00,11.9,-7.3,30.37,ENE,65,9.0,14.0,41,0.00,,,0.00,Wunderground v.1.15,2013-02-07 04:25:00,
2013-02-06 23:30:00,11.7,-7.5,30.36,ENE,71,5.0,12.0,41,0.00,,,0.00,Wunderground v.1.15,2013-02-07 04:30:00,
2013-02-06 23:35:00,11.7,-7.5,30.36,ENE,65,6.0,14.0,41,0.00,,,0.00,Wunderground v.1.15,2013-02-07 04:35:00,
2013-02-06 23:40:00,11.6,-7.6,30.36,ENE,67,4.0,6.0,41,0.00,,,0.00,Wunderground v.1.15,2013-02-07 04:40:00,
2013-02-06 23:45:00,11.4,-7.3,30.38,ENE,59,4.0,9.0,42,0.00,,,0.00,Wunderground v.1.15,2013-02-07 04:45:00,
2013-02-06 23:50:00,11.4,-7.3,30.38,ENE,70,5.0,7.0,42,0.00,,,0.00,Wunderground v.1.15,2013-02-07 04:50:00,
2013-02-06 23:55:00,11.2,-7.5,30.38,ENE,72,6.0,7.0,42,0.00,,,0.00,Wunderground v.1.15,2013-02-07 04:55:00,